Flag for Mexico Weather past 2 weeks in Monterrey, Nuevo León, Mexico

Now
90 °F

Scattered clouds.


Feels Like: 90 °F
Forecast: 71 / 93 °F
Wind: 10 mph from Southeast

Location: Monterrey / Gen Maria

Current Time: Jul 4, 2015 at 7:21:57 PM

Latest Report: Jul 4, 2015 at 6:49 PM


Visibility: 12 mi

Pressure: 29.83 "Hg (28.06 "Hg at 545m altitude)

Humidity: 41%

Dew point: 63 °F

Location of MonterreyLocation

Historic Weather in Monterrey — Graph

°F

Monterrey temperature yesterday

Maximum temperature yesterday: 90 °F (at 5:46 PM)
Minimum temperature yesterday: 70 °F (at 2:40 AM)
Average temperature yesterday: 80 °F

Past Weeks' High & Low Weather Summary

 TemperatureHumidityPressure
High90 °F (Jun 26, 5:45 PM)100% (Jun 20, 12:40 AM)30.15 "Hg (Jun 20, 12:40 AM)
Low68 °F (Jul 2, 12:42 AM)41% (Jul 4, 5:48 PM)29.84 "Hg (Jul 3, 6:50 PM)
Average77 °F78%29.99 "Hg
* Reported Jun 19 5:47 PM — Jul 4 5:48 PM, Monterrey, Weather by CustomWeather, © 2015

Note: Actual official high and low records may vary slightly from our data, if they occured in-between our weather recording intervals... More about our weather records

Advertising

Monterrey weather history for previous 24 hours

 ConditionsComfort  
Time TempWeatherWind HumidityBarometerVisibility
5:48 PM
Sat, Jul 4
90 °FBroken clouds.10 mph41%29.87 "Hg12 mi
3:45 PM88 °FPartly sunny.12 mph49%30.12 "Hg12 mi
2:51 PM86 °FBroken clouds.8 mph55%29.94 "Hg10 mi
1:42 PM84 °FBroken clouds.9 mph58%29.96 "Hg10 mi
12:45 PM82 °FBroken clouds.6 mph62%29.93 "Hg8 mi
11:43 AM81 °FBroken clouds.7 mph70%29.97 "Hg7 mi
10:44 AM79 °FBroken clouds.6 mph70%29.96 "Hg7 mi
9:47 AM77 °FPartly sunny.5 mph79%29.91 "Hg5 mi
8:44 AM75 °FBroken clouds.3 mph83%29.96 "Hg5 mi
7:44 AM72 °FPassing clouds.3 mph94%29.95 "Hg4 mi
4:41 AM73 °FOvercast.8 mph83%29.92 "Hg8 mi
3:45 AM72 °FPassing clouds.5 mph88%29.92 "Hg10 mi
2:43 AM72 °FPassing clouds.5 mph88%29.93 "Hg10 mi
1:41 AM72 °FClear.No wind88%29.93 "Hg15 mi
12:47 AM73 °FClear.6 mph83%29.91 "Hg15 mi
11:43 PM
Fri, Jul 3
77 °FClear.9 mph74%29.94 "Hg15 mi
10:45 PM79 °FClear.12 mph70%29.92 "Hg15 mi
9:46 PM81 °FClear.13 mph66%29.88 "Hg15 mi
8:44 PM84 °FBroken clouds.12 mph55%29.88 "Hg12 mi
7:48 PM88 °FScattered clouds.9 mph43%29.87 "Hg12 mi
Weather by CustomWeather, © 2015

See weather overviewHow to use our weather pages